COSMOS 886 DEB *, 19425

Orbit data source: Space-Track

COSMOS 886 DEB *, 19425 is space debris in LEO originally from a launch on Mon, 27 Dec 1976 UTC launched from the Tyuratam Missile And Space Complex (TTMTR). Debris objects in space refer to the collection of defunct objects orbiting the Earth. Examples of debris include non-operational satellites, rocket bodies, and fragments generated from explosions, collisions, or faulty payload assembly.

Loading next visibility...
Identifier
19425, 1976-126CC
Orbit
LEO
Country
Flag of CISCIS
Related business
Manufacturer
Unknown
Mission
Spacecraft
Bus & Motor
Unknown
Mass
Unknown
Launch date (UTC)
1976-12-27 (49 years ago)
Launch vehicle
Unknown
Launch site
Tyuratam Missile And Space Complex (TTMTR)
Object type
Payload
Rocket body
Debris
Shape & HBR
Unknown shape, 0.1 m
Radar Cross Section
Medium (>0.1 m² and <1 m²)

Expand to show TLE details & history
Last TLE update: 3 weeks ago

TLE from 3 weeks ago
0 COSMOS 886 DEB *
1 19425U 76126CC  26151.84697640  .00000868  00000-0  34139-2 0  9996
2 19425  66.2205 103.3206 0326148 191.3976 196.7291 12.76873117613029
Epoch: 2026-05-31T20:19Z
TLE epoch observation values (Epoch: 2026-05-31T20:19:38.760Z)
Latitude
24.66659°
Longitude
-79.3159°
Altitude
1,598.277 km
Speed
6.961 km/s
True Right ascension
07h 39m 45s
True Declination
24° 33' 01"
Sunlit
Object was in daylight at epoch
Visualization orbit readout
Latitude
Unknown
Longitude
Unknown
Altitude
Unknown
Speed
Unknown
Apparent Right ascension
Unknown
Apparent Declination
Unknown
Sunlit
N/A
Visualization observer readout
Local Sidereal Time
04:43:58
Azimuth
Unknown
Elevation
Unknown
Doppler factor
Unknown
Orbital elements
Apogee altitude
1,604.748 km
Perigee altitude
1,100.475 km
Semi-major axis
7,730.749 km
Eccentricity
0.03261
Inclination
66.2205°
RAAN
103.3206°
Arg. of periapsis
191.3976°
True anomaly
195.69384°
Mean anomaly
196.7291°
Eccentric anomaly
196.20752°
Mean motion
3.19309 °/min
Orbital period
112.74 mins
BSTAR
0.0034139
Loading maneuver chart data...
Computing Atmospheric mass density...
Loading historical data...
Loading historical data...
Loading historical data...
Loading historical data...
Loading historical data...
Loading historical data...
Loading historical data...

Documentation

Showing up to 5 results
|